Atlantic, IA

7:45 PM CST on February 27, 2017 (GMT -0600)
Atlantic Municipal

Weather History for KAIO - October, 2012

Change the Weather History Date:

Tuesday, October 9, 2012

  Actual Average Record
Temperature  
Mean Temperature 44 °F -  
Max Temperature 55 °F 66 °F 82 °F (2003)
Min Temperature 32 °F 41 °F 24 °F (2000)
Degree Days  
Heating Degree Days 21    
Moisture  
Dew Point 33 °F    
Average Humidity 57    
Maximum Humidity 75    
Minimum Humidity 37    
Precipitation  
Precipitation 0.00 in - - ()
Sea Level Pressure  
Sea Level Pressure 29.94 in    
Wind  
Wind Speed 8 mph (WNW)    
Max Wind Speed 23 mph    
Max Gust Speed 31 mph    
Visibility 10 miles    
Events Rain    
Averages and records for this station are not official NWS values.
T = Trace of Precipitation, MM = Missing Value Source: NWS Daily Summary

Daily Weather History Graph

Daily Weather History Graph

Search for Another Location

Airport or City:

Trip Planner

Search our weather history database for the weather conditions in past years. The results will help you decide how hot, cold, wet, or windy it might be!

Date:

Astronomy

Oct. 09, 2012 Rise Set
Actual Time 7:26 AM CDT 6:47 PM CDT
Civil Twilight 6:58 AM CDT 7:15 PM CDT
Nautical Twilight 6:26 AM CDT 7:47 PM CDT
Astronomical Twilight 5:54 AM CDT 8:19 PM CDT
Moon 12:59 AM CDT (10/9) 3:19 PM CDT (10/9)
Length of Visible Light 12h 17m
Length of Day
11h 21m
Last Quarter, 36% of the Moon is Illuminated
Oct 9
Last Quarter
Oct 15
New
Oct 21
First Quarter
Oct 29
Full
Nov 6
Last Quarter

Hourly Weather History & Observations

Time (CDT) Temp. Windchill Dew Point Humidity Pressure Visibility Wind Dir Wind Speed Gust Speed Precip Events Conditions
12:15 AM 50.0 °F - 33.8 °F 54% 29.84 in 10.0 mi West 3.5 mph - N/A   Clear
12:35 AM 46.4 °F 44.3 °F 33.8 °F 62% 29.84 in 10.0 mi WSW 4.6 mph - N/A   Partly Cloudy
12:55 AM 48.2 °F - 33.8 °F 58% 29.85 in 10.0 mi SSE 4.6 mph - N/A   Scattered Clouds
1:15 AM 44.6 °F 40.7 °F 32.0 °F 61% 29.84 in 5.0 mi South 6.9 mph - N/A   Haze
1:55 AM 42.8 °F 41.1 °F 33.8 °F 70% 29.84 in 10.0 mi SSW 3.5 mph - N/A   Partly Cloudy
2:15 AM 41.0 °F 38.0 °F 32.0 °F 70% 29.84 in 10.0 mi SW 4.6 mph - N/A   Partly Cloudy
2:55 AM 44.6 °F 42.2 °F 33.8 °F 66% 29.83 in 10.0 mi SSW 4.6 mph - N/A   Clear
3:15 AM 44.6 °F 42.2 °F 35.6 °F 71% 29.83 in 10.0 mi SSW 4.6 mph - N/A   Partly Cloudy
3:35 AM 44.6 °F 41.4 °F 35.6 °F 71% 29.82 in 10.0 mi SSW 5.8 mph - N/A   Clear
3:55 AM 46.4 °F 43.5 °F 35.6 °F 66% 29.81 in 10.0 mi SSW 5.8 mph - N/A   Clear
4:15 AM 48.2 °F - 35.6 °F 62% 29.81 in 10.0 mi SSW 6.9 mph - N/A   Scattered Clouds
4:35 AM 50.0 °F - 37.4 °F 62% 29.81 in 10.0 mi SSW 8.1 mph - N/A   Overcast
4:55 AM 50.0 °F - 37.4 °F 62% 29.81 in 10.0 mi SSW 9.2 mph - N/A   Mostly Cloudy
5:15 AM 50.0 °F - 37.4 °F 62% 29.81 in 10.0 mi SSW 9.2 mph - N/A   Scattered Clouds
5:35 AM 50.0 °F - 37.4 °F 62% 29.81 in 10.0 mi SSW 9.2 mph - N/A   Mostly Cloudy
5:55 AM 50.0 °F - 37.4 °F 62% 29.82 in 10.0 mi SW 8.1 mph - N/A   Mostly Cloudy
6:15 AM 50.0 °F - 37.4 °F 62% 29.82 in 10.0 mi SSW 6.9 mph - N/A   Mostly Cloudy
6:55 AM 48.2 °F - 37.4 °F 66% 29.83 in 10.0 mi SSW 5.8 mph - N/A   Overcast
7:15 AM 48.2 °F - 37.4 °F 66% 29.83 in 10.0 mi SW 4.6 mph - N/A   Mostly Cloudy
7:35 AM 48.2 °F - 37.4 °F 66% 29.85 in 10.0 mi SW 8.1 mph - N/A   Partly Cloudy
7:55 AM 48.2 °F - 37.4 °F 66% 29.86 in 9.0 mi SW 6.9 mph - N/A   Clear
8:15 AM 48.2 °F - 37.4 °F 66% 29.86 in 10.0 mi SW 4.6 mph - N/A   Clear
8:35 AM 50.0 °F - 39.2 °F 66% 29.87 in 9.0 mi Calm Calm - N/A   Clear
8:55 AM 51.8 °F - 37.4 °F 58% 29.87 in 10.0 mi WSW 3.5 mph - N/A   Clear
9:15 AM 53.6 °F - 37.4 °F 54% 29.88 in 10.0 mi WNW 8.1 mph - N/A   Clear
9:35 AM 53.6 °F - 39.2 °F 58% 29.88 in 10.0 mi NNW 9.2 mph - N/A   Clear
9:55 AM 53.6 °F - 41.0 °F 62% 29.88 in 10.0 mi North 15.0 mph - N/A   Clear
10:15 AM 53.6 °F - 41.0 °F 62% 29.88 in 10.0 mi North 19.6 mph - N/A   Clear
10:35 AM 53.6 °F - 41.0 °F 62% 29.89 in 10.0 mi NNW 17.3 mph 23.0 mph N/A   Clear
10:55 AM 55.4 °F - 42.8 °F 63% 29.90 in 10.0 mi NNW 21.9 mph 28.8 mph N/A   Clear
11:15 AM 55.4 °F - 41.0 °F 58% 29.91 in 10.0 mi North 21.9 mph 31.1 mph N/A   Clear
11:35 AM 55.4 °F - 41.0 °F 58% 29.91 in 10.0 mi NNW 23.0 mph 31.1 mph N/A   Clear
11:55 AM 55.4 °F - 41.0 °F 58% 29.91 in 10.0 mi North 23.0 mph 31.1 mph N/A   Partly Cloudy
12:15 PM 53.6 °F - 41.0 °F 62% 29.92 in 10.0 mi North 19.6 mph 27.6 mph N/A   Mostly Cloudy
12:35 PM 53.6 °F - 41.0 °F 62% 29.94 in 10.0 mi NNW 20.7 mph - N/A   Mostly Cloudy
12:55 PM 51.8 °F - 37.4 °F 58% 29.95 in 10.0 mi NNW 20.7 mph 26.5 mph N/A   Mostly Cloudy
1:15 PM 51.8 °F - 33.8 °F 50% 29.95 in 10.0 mi NNW 20.7 mph - N/A   Overcast
1:35 PM 51.8 °F - 33.8 °F 50% 29.96 in 10.0 mi NNW 13.8 mph 23.0 mph N/A   Overcast
1:55 PM 50.0 °F - 35.6 °F 58% 29.95 in 9.0 mi NNW 8.1 mph 16.1 mph N/A Rain Light Rain
2:15 PM 51.8 °F - 35.6 °F 54% 29.95 in 10.0 mi NNW 13.8 mph - N/A   Partly Cloudy
2:35 PM 51.8 °F - 33.8 °F 50% 29.95 in 10.0 mi NW 16.1 mph - N/A   Partly Cloudy
2:55 PM 51.8 °F - 32.0 °F 47% 29.95 in 10.0 mi NNW 15.0 mph - N/A   Scattered Clouds
3:15 PM 51.8 °F - 28.4 °F 41% 29.96 in 10.0 mi NNW 10.4 mph 19.6 mph N/A   Overcast
3:35 PM 51.8 °F - 28.4 °F 41% 29.97 in 10.0 mi NNW 15.0 mph - N/A   Overcast
3:55 PM 51.8 °F - 28.4 °F 41% 29.98 in 10.0 mi NW 12.7 mph - N/A   Mostly Cloudy
4:15 PM 51.8 °F - 28.4 °F 41% 29.98 in 10.0 mi NW 16.1 mph - N/A   Mostly Cloudy
4:35 PM 51.8 °F - 26.6 °F 38% 29.99 in 10.0 mi NW 13.8 mph 24.2 mph N/A   Mostly Cloudy
4:55 PM 51.8 °F - 28.4 °F 41% 29.99 in 10.0 mi NW 15.0 mph - N/A   Partly Cloudy
5:15 PM 50.0 °F - 24.8 °F 37% 29.98 in 10.0 mi NW 11.5 mph - N/A   Clear
5:35 PM 50.0 °F - 24.8 °F 37% 29.99 in 10.0 mi WNW 9.2 mph - N/A   Clear
5:55 PM 50.0 °F - 24.8 °F 37% 29.99 in 10.0 mi West 8.1 mph - N/A   Clear
6:15 PM 50.0 °F - 26.6 °F 40% 29.99 in 10.0 mi SW 5.8 mph - N/A   Clear
6:35 PM 48.2 °F - 26.6 °F 43% 29.99 in 10.0 mi SW 6.9 mph - N/A   Clear
6:55 PM 46.4 °F 42.9 °F 24.8 °F 43% 30.00 in 10.0 mi West 6.9 mph - N/A   Clear
7:15 PM 42.8 °F 38.0 °F 24.8 °F 49% 30.01 in 10.0 mi West 8.1 mph - N/A   Clear
7:35 PM 46.4 °F 40.7 °F 24.8 °F 43% 30.03 in 9.0 mi NNW 12.7 mph - N/A   Partly Cloudy
7:55 PM 46.4 °F 42.4 °F 26.6 °F 46% 30.04 in 10.0 mi NNW 8.1 mph - N/A   Partly Cloudy
8:15 PM 46.4 °F 41.5 °F 26.6 °F 46% 30.05 in 10.0 mi NNW 10.4 mph - N/A   Clear
8:35 PM 44.6 °F 39.7 °F 26.6 °F 49% 30.06 in 10.0 mi NNW 9.2 mph - N/A   Clear
8:55 PM 42.8 °F 37.5 °F 26.6 °F 53% 30.07 in 10.0 mi North 9.2 mph - N/A   Clear
9:15 PM 41.0 °F 36.4 °F 28.4 °F 61% 30.08 in 10.0 mi North 6.9 mph - N/A   Clear
9:35 PM 41.0 °F 39.0 °F 26.6 °F 57% 30.08 in 10.0 mi North 3.5 mph - N/A   Clear
9:55 PM 39.2 °F 35.9 °F 26.6 °F 61% 30.09 in 10.0 mi NNE 4.6 mph - N/A   Clear
10:15 PM 39.2 °F 37.0 °F 26.6 °F 61% 30.10 in 10.0 mi North 3.5 mph - N/A   Clear
10:35 PM 37.4 °F - 26.6 °F 65% 30.11 in 10.0 mi Calm Calm - N/A   Clear
10:55 PM 37.4 °F - 26.6 °F 65% 30.11 in 10.0 mi Calm Calm - N/A   Clear
11:15 PM 35.6 °F - 26.6 °F 70% 30.11 in 10.0 mi Calm Calm - N/A   Clear
11:35 PM 33.8 °F - 24.8 °F 70% 30.12 in 10.0 mi Calm Calm - N/A   Clear
11:55 PM 32.0 °F - 24.8 °F 75% 30.12 in 10.0 mi Calm Calm - N/A   Clear